Location: Chevilly
(48.7648°N, 2.3503°E)
Time: 01:42:23
(UTC+00:00)

Daily predictions for brighter satellites

Satellite Brightness Start Highest point End
(mag) Time Altitude Azimuth Time Altitude Azimuth Time Altitude Azimuth
ATLAS 2AS CENTAUR R/B 4.2 02:52:20 36° NE 02:52:20 36° NE 02:56:39 10° NE
Lacrosse 5 4.3 03:33:29 17° NE 03:33:29 17° NE 03:34:43 10° NE
ATLAS 3B R/B 4.1 03:36:30 28° SSE 03:36:30 28° SSE 03:39:35 10° SSE
CZ-4C R/B 3.6 03:47:08 32° NE 03:47:08 32° NE 03:50:28 10° NE
BREEZE-M DEB (TANK) 4.5 03:53:02 72° SW 03:54:14 85° SSE 04:26:50 10° E
Cosmos 1844 Rocket 3.6 04:02:42 42° NE 04:02:42 42° NE 04:06:25 10° NNE
COSMOS 2406 4.4 04:02:25 35° NNE 04:03:26 37° NE 04:08:46 10° ESE
ATLAS 5 CENTAUR R/B 3.3 04:17:17 27° ESE 04:17:22 27° ESE 04:21:06 10° ENE
NOSS 3-4 (A) 4.4 04:22:14 35° N 04:22:14 35° N 04:26:53 10° NE
NOSS 3-4 (C) 4.4 04:22:19 35° N 04:22:19 35° N 04:27:00 10° NE
USA 306 4.3 04:25:27 37° ESE 04:25:27 37° ESE 04:28:08 10° ESE
Cosmos 2263 Rocket 4.2 04:33:14 16° N 04:33:14 16° N 04:34:40 10° N
ADEOS 3.8 04:28:08 10° NNE 04:33:22 68° ESE 04:38:34 10° S
FENGYUN 3A 3.6 04:28:25 10° NNE 04:33:52 81° ESE 04:36:29 32° S
Meteor 1-27 Rocket 4.5 04:29:03 12° N 04:34:17 53° ENE 04:40:03 10° SSE
Cosmos 1844 3.6 04:37:52 68° N 04:37:52 68° N 04:42:55 10° NNE
ATLAS 2AS CENTAUR R/B 3.3 04:39:48 45° NW 04:40:21 46° NW 04:47:45 10° NE
Meteor 1-10 Rocket 4.1 04:41:21 53° NNW 04:42:48 88° W 04:48:28 10° S
SKYMED 2 3.8 04:43:56 10° SSE 04:48:15 69° ENE 04:48:46 62° NNE
METEOR-M 4.1 04:43:21 10° NNE 04:48:44 85° ESE 04:54:05 10° SSW
Cosmos 372 Rocket 3.9 04:49:28 38° SSW 04:51:28 85° ESE 04:56:36 10° NNE
COSMOS 2455 2.7 04:49:17 40° SW 04:51:37 88° NW 04:57:42 10° NE
Cosmos 2154 Rocket 4.0 04:49:09 10° S 04:55:23 84° E 05:01:44 10° N
PSLV R/B 4.3 04:54:25 10° SSE 04:58:28 62° ENE 04:59:50 38° N
ALOS 3.4 04:54:27 10° N 04:56:56 30° N 04:56:56 30° N
Cosmos 1833 Rocket 2.8 04:57:52 31° NNW 05:00:39 72° ENE 05:06:15 10° SE
Sich 1 3.6 04:56:29 10° S 05:00:50 58° E 05:05:12 10° NNE
Cosmos 2327 Rocket 4.3 04:58:11 10° S 05:04:15 83° W 05:10:24 10° N
Cosmos 2082 Rocket 3.0 05:01:52 19° NNW 05:05:52 49° NE 05:11:24 10° SE
SL-4 R/B 2.1 05:06:43 60° S 05:06:43 60° S 05:10:04 10° SE
Cosmos 2074 Rocket 4.0 05:00:50 10° SSW 05:06:54 55° WNW 05:13:02 10° N
EXPRESS MD2 3.8 05:07:42 50° SSW 05:07:51 50° SSW 05:13:44 10° SE
USA 290 4.0 05:07:38 25° NNE 05:08:30 29° ENE 05:11:24 10° ESE
Cosmos 2228 Rocket 4.1 05:11:09 30° SSW 05:11:09 30° SSW 05:13:37 10° SSW
Cosmos 1437 Rocket 3.9 05:12:49 29° SSW 05:12:49 29° SSW 05:14:52 10° S
Lacrosse 5 2.7 05:12:41 32° NNW 05:13:20 33° N 05:17:57 10° ENE
EO 1 Delta rocket 3.7 05:13:25 10° S 05:18:05 88° W 05:22:50 10° N
ERBS 3.8 05:21:36 25° NNE 05:21:46 25° NNE 05:24:36 10° ENE
Cosmos 2341 Rocket 4.2 05:15:55 10° S 05:22:05 73° E 05:28:19 10° NNE
ATLAS 3B R/B 4.3 05:23:49 17° SW 05:23:49 17° SW 05:26:40 10° SSW
USA 307 3.1 05:22:34 47° WSW 05:23:13 52° SW 05:27:24 10° SE
Meteor 2-12 Rocket 4.5 05:18:38 10° S 05:24:48 84° E 05:31:00 10° N
Meteor PRIRODA 3.5 05:22:15 10° NNE 05:26:00 89° WNW 05:29:44 10° SSW
CZ-4B R/B 2.9 05:23:41 10° NNE 05:28:09 79° WNW 05:32:25 10° SSW
USA 308 3.3 05:28:59 40° WSW 05:29:51 47° SW 05:33:59 10° SE
Cosmos 2184 Rocket 4.4 05:26:48 10° SW 05:32:42 39° WNW 05:38:40 10° N
CZ-4C R/B 3.2 05:32:20 27° NW 05:33:44 30° NNW 05:39:24 10° NE
Cosmos 2278 Rocket 2.3 05:29:15 10° SSW 05:34:53 80° ESE 05:40:36 10° NNE
SAR-Lupe-4 4.5 05:32:09 10° SSW 05:34:39 31° SW 05:34:39 31° SW
FALCON 9 DEB 3.7 05:35:47 38° N 05:36:09 39° N 05:39:12 10° E
COSMO-SKYMED 1 3.0 05:32:18 10° SSW 05:36:23 39° W 05:37:21 34° WNW
Okean O Rocket 3.9 05:33:48 10° NE 05:37:35 27° E 05:41:22 10° SSE
Cosmos 1862 Rocket 3.8 05:33:09 10° N 05:37:36 69° E 05:41:58 10° SSE
Envisat 3.7 05:33:36 10° NNE 05:38:37 57° E 05:43:36 10° S
Cosmos 1805 Rocket 3.9 05:36:37 10° SSW 05:40:52 43° WNW 05:45:10 10° N
deb Chang Zheng 4 3.9 05:37:00 10° N 05:41:05 40° WNW 05:45:10 10° SW
Cosmos 494 Rocket 3.9 05:39:47 19° NNW 05:43:27 65° WSW 05:48:30 10° S
YAOGAN 6 3.2 05:40:28 10° NNE 05:43:54 55° E 05:47:20 10° S
Cosmos 1844 Rocket 3.7 05:44:24 24° WNW 05:45:13 25° NW 05:49:54 10° NNE
COSMOS 2406 3.6 05:44:31 22° NW 05:47:51 45° WSW 05:53:18 10° S
Cosmos 1666 Rocket 3.4 05:44:42 10° SSW 05:49:01 71° W 05:53:24 10° N
BREEZE-M (TANK) 4.1 05:45:25 10° SW 05:52:13 36° SSE 05:54:49 10° E
Cosmos 1689 Rocket 3.9 05:50:40 10° SSW 05:51:47 18° SW 05:51:47 18° SW
USA 305 3.9 05:53:05 23° W 05:54:45 31° SW 05:58:33 10° SSE
Cosmos 1242 Rocket 2.5 05:55:27 13° NNW 05:58:42 66° W 06:02:20 10° S
H-2A R/B 2.6 05:55:52 10° NNE 05:59:41 67° ESE 06:03:31 10° S
Cosmos 1271 Rocket 4.2 05:56:15 10° N 05:59:50 36° ENE 06:03:28 10° SE
ATLAS 5 CENTAUR R/B 1.9 05:58:53 18° WSW 06:01:42 44° NW 06:06:15 10° NE
USA 306 4.1 06:01:36 20° W 06:03:33 28° SW 06:07:11 10° SSE
MOS 1 Rocket 3.7 06:00:01 10° S 06:04:55 52° W 06:10:07 10° NNW
CZ-2C R/B 2.9 06:01:09 10° SSE 06:06:31 71° ENE 06:11:48 10° N
Cosmos 2366 rocket 4.0 06:01:49 10° S 06:08:08 84° W 06:14:25 10° N
USA 229 DEB 4.0 06:01:24 12° NW 06:08:11 77° NE 06:15:52 10° SE
USA 229 4.0 06:01:30 12° NW 06:08:17 77° NE 06:15:58 10° SE
Cosmos 1633 Rocket 3.1 06:04:41 10° SSW 06:09:01 54° WNW 06:13:21 10° N
Okean 1-7 3.9 06:05:59 10° N 06:10:10 49° ENE 06:14:18 10° SSE
USA 81 4.1 06:05:51 10° SSW 06:10:59 54° W 06:16:10 10° N
FALCON 9 DEB 3.4 06:10:17 21° NW 06:12:09 50° NNE 06:15:18 10° E
H-2A R/B 3.1 06:10:07 10° N 06:13:47 40° WNW 06:17:24 10° SW
Cosmos 2218 Rocket 3.9 06:07:39 10° SSW 06:13:52 75° W 06:20:04 10° N
Cosmos 1125 Rocket 3.6 06:09:28 10° SW 06:14:32 51° WNW 06:19:38 10° NNE
Meteor 1-20 Rocket 4.2 06:10:29 10° SSW 06:16:12 68° WNW 06:22:02 10° N
GENESIS II 4.5 06:12:59 10° SSW 06:17:00 76° SE 06:21:03 10° NE
NOSS 3-1 (C) 4.1 06:10:01 12° NW 06:17:08 83° SW 06:25:46 10° SE
FALCON 9 DEB 3.4 06:15:49 19° NW 06:17:55 51° NNE 06:21:05 10° E
Cosmos 1269 Rocket 4.1 06:14:18 10° NNW 06:19:32 63° WSW 06:24:44 10° S
Iridium 2 4.3 06:18:00 10° N 06:21:44 59° E 06:25:25 10° SSE
PSLV R/B 4.0 06:18:13 10° N 06:21:52 44° WNW 06:25:24 10° SW
NOSS 3-1 (A) 4.2 06:15:02 10° NW 06:22:25 79° NE 06:31:02 10° SE
NOSS 2-1 (E) 3.2 06:25:42 10° SSW 06:29:00 70° SE 06:32:35 10° NE
AQUARIUS 4.2 06:28:11 10° NNE 06:32:42 88° WNW 06:37:12 10° SSW
ATLAS 2AS CENTAUR R/B 4.1 06:27:15 11° WNW 06:33:19 27° N 06:39:33 10° NE
CZ-4B DEB 4.3 06:29:39 10° N 06:35:02 58° WNW 06:40:23 10° SW
Cosmos 2242 Rocket 3.5 06:30:38 10° NNW 06:35:02 71° W 06:39:24 10° S
COSMOS 2455 3.9 06:33:24 10° W 06:38:23 26° NNW 06:43:23 10° NNE
Sich 1 4.5 06:35:57 10° WSW 06:38:55 17° WNW 06:41:53 10° NNW
Cosmos 1939 Rocket 3.8 06:37:03 10° NNE 06:41:06 56° E 06:45:09 10° S
Okean 1 4.0 06:38:46 10° NNW 06:42:28 34° W 06:46:08 10° SSW
FALCON 9 DEB 3.1 06:39:24 11° WNW 06:42:30 67° NNE 06:45:43 10° ESE
USA 290 3.8 06:40:26 10° WNW 06:42:44 19° WSW 06:45:03 10° SSW
Meteor 1-19 Rocket 4.4 06:38:43 10° NNW 06:43:55 48° W 06:49:04 10° SSW
Cosmos 1833 Rocket 4.0 06:39:57 10° NW 06:43:58 20° W 06:47:58 10° SSW
SL-4 R/B 3.9 06:43:16 10° W 06:45:17 14° SW 06:47:14 10° SSW
MOS 1-B 4.5 06:39:51 10° N 06:45:33 57° WNW 06:51:12 10° SW
Cosmos 1703 Rocket 3.5 06:42:54 10° NNW 06:47:12 64° W 06:51:28 10° S
NOAA 11 4.3 06:42:51 10° NNE 06:48:23 86° ESE 06:53:54 10° SSW
SL-8 Rocket 4.5 06:43:57 10° SW 06:49:34 36° WNW 06:55:15 10° N
Cosmos 2082 Rocket 3.0 06:44:45 10° NW 06:49:46 32° WSW 06:54:46 10° SSW
CZ-4 R/B 3.4 06:49:00 10° NNE 06:52:54 35° E 06:56:45 10° SSE
CZ-4B R/B 3.2 06:49:21 10° N 06:54:42 66° WNW 07:00:07 10° SSW
Cosmos 2297 3.7 06:50:15 10° SSW 06:55:53 88° WNW 07:01:35 10° NNE
